Radiation Dose at Monitoring Post of Fukushima Daini Nuclear Power Station
Date,Time,MP-1(microSv/h),MP-2(microSv/h),MP-3(microSv/h),MP-4(microSv/h),MP-5(microSv/h),MP-6(microSv/h),MP-7(microSv/h),Wind Direction,Wind Velocity(m/s),Rain
2022/09/24,00:00,0.143,0.136,0.210,0.203,0.208,0.115,0.076,southeast,2.0,Yes
2022/09/24,00:10,0.145,0.135,0.211,0.203,0.211,0.115,0.075,south-southeast,2.1,Yes
2022/09/24,00:20,0.144,0.135,0.210,0.202,0.208,0.115,0.076,southeast,2.0,Yes
2022/09/24,00:30,0.144,0.135,0.210,0.204,0.207,0.115,0.075,southeast,1.6,Yes
2022/09/24,00:40,0.145,0.135,0.211,0.202,0.210,0.115,0.074,southeast,1.1,Yes
2022/09/24,00:50,0.143,0.135,0.209,0.201,0.208,0.115,0.076,southeast,1.8,Yes
2022/09/24,01:00,0.143,0.135,0.210,0.203,0.208,0.115,0.075,southeast,1.9,Yes
2022/09/24,01:10,0.145,0.135,0.210,0.204,0.210,0.115,0.075,south-southeast,1.8,Yes
2022/09/24,01:20,0.144,0.136,0.209,0.202,0.206,0.114,0.074,south-southeast,1.9,Yes
2022/09/24,01:30,0.143,0.134,0.211,0.204,0.209,0.116,0.074,south-southeast,2.2,Yes
2022/09/24,01:40,0.146,0.134,0.210,0.202,0.209,0.114,0.075,south,2.5,No
2022/09/24,01:50,0.144,0.136,0.209,0.203,0.207,0.115,0.075,south,3.4,No
2022/09/24,02:00,0.145,0.134,0.212,0.204,0.209,0.114,0.075,south,3.1,No
2022/09/24,02:10,0.145,0.135,0.210,0.202,0.209,0.114,0.075,south,4.2,No
2022/09/24,02:20,0.143,0.135,0.210,0.203,0.207,0.115,0.075,south,4.8,No
2022/09/24,02:30,0.145,0.134,0.211,0.203,0.209,0.115,0.074,south,3.9,No
2022/09/24,02:40,0.145,0.135,0.209,0.201,0.208,0.114,0.075,south,3.3,No
2022/09/24,02:50,0.144,0.133,0.212,0.204,0.207,0.115,0.075,south,4.1,No
2022/09/24,03:00,0.144,0.135,0.210,0.203,0.210,0.115,0.074,south-southwest,5.0,No
2022/09/24,03:10,0.144,0.135,0.210,0.202,0.208,0.114,0.074,south-southwest,5.6,No
2022/09/24,03:20,0.144,0.133,0.212,0.204,0.206,0.117,0.074,south-southwest,5.8,Yes
2022/09/24,03:30,0.145,0.135,0.210,0.204,0.209,0.116,0.075,south-southwest,4.9,Yes
2022/09/24,03:40,0.144,0.135,0.211,0.202,0.208,0.114,0.075,south,4.6,Yes
2022/09/24,03:50,0.144,0.135,0.212,0.204,0.206,0.115,0.075,south,4.9,No
2022/09/24,04:00,0.145,0.135,0.210,0.203,0.208,0.115,0.074,south,4.3,Yes
2022/09/24,04:10,0.145,0.135,0.211,0.202,0.209,0.115,0.074,south,4.9,Yes
2022/09/24,04:20,0.144,0.136,0.211,0.205,0.207,0.116,0.074,south,5.3,Yes
2022/09/24,04:30,0.146,0.135,0.210,0.202,0.210,0.115,0.075,south-southeast,6.3,Yes
2022/09/24,04:40,0.144,0.135,0.212,0.205,0.209,0.115,0.075,south-southeast,7.8,Yes
2022/09/24,04:50,0.145,0.136,0.210,0.204,0.208,0.117,0.075,south-southeast,9.8,Yes
2022/09/24,05:00,0.145,0.135,0.210,0.201,0.209,0.116,0.077,south-southeast,11.1,Yes
2022/09/24,05:10,0.145,0.136,0.211,0.203,0.209,0.117,0.077,south-southeast,9.2,Yes
2022/09/24,05:20,0.145,0.136,0.209,0.201,0.207,0.118,0.078,south-southeast,9.6,Yes
2022/09/24,05:30,0.146,0.135,0.209,0.201,0.209,0.116,0.078,south,7.6,Yes
2022/09/24,05:40,0.144,0.138,0.210,0.203,0.212,0.117,0.078,south,7.0,Yes
2022/09/24,05:50,0.146,0.137,0.209,0.203,0.209,0.118,0.079,south-southwest,7.9,Yes
2022/09/24,06:00,0.145,0.137,0.211,0.203,0.211,0.117,0.079,south-southwest,7.8,Yes
2022/09/24,06:10,0.144,0.138,0.212,0.206,0.211,0.116,0.078,south-southwest,7.5,Yes
2022/09/24,06:20,0.145,0.138,0.210,0.204,0.211,0.118,0.079,south-southwest,8.1,Yes
2022/09/24,06:30,0.146,0.138,0.212,0.203,0.211,0.118,0.079,south-southwest,7.7,Yes
2022/09/24,06:40,0.146,0.139,0.211,0.206,0.212,0.118,0.079,south-southwest,8.5,Yes
2022/09/24,06:50,0.147,0.137,0.211,0.205,0.210,0.119,0.080,south-southwest,8.9,Yes
2022/09/24,07:00,0.147,0.139,0.213,0.206,0.213,0.120,0.080,southwest,8.2,Yes
2022/09/24,07:10,0.146,0.139,0.211,0.206,0.212,0.119,0.079,southwest,9.5,Yes
2022/09/24,07:20,0.147,0.138,0.213,0.203,0.210,0.119,0.079,south-southwest,8.3,Yes
2022/09/24,07:30,0.145,0.138,0.213,0.206,0.212,0.117,0.078,south-southwest,8.7,Yes
2022/09/24,07:40,0.146,0.136,0.211,0.205,0.210,0.117,0.078,south-southwest,5.6,Yes
2022/09/24,07:50,0.146,0.136,0.212,0.204,0.209,0.117,0.077,south-southwest,6.3,No
2022/09/24,08:00,0.144,0.136,0.210,0.204,0.211,0.116,0.076,south-southwest,8.4,No
2022/09/24,08:10,0.144,0.135,0.210,0.203,0.209,0.116,0.076,south-southwest,8.7,Yes
2022/09/24,08:20,0.145,0.136,0.211,0.204,0.208,0.117,0.077,south-southwest,8.1,Yes
2022/09/24,08:30,0.144,0.136,0.211,0.205,0.212,0.118,0.078,south-southwest,7.3,Yes
2022/09/24,08:40,0.145,0.136,0.213,0.204,0.209,0.116,0.078,south-southwest,7.1,Yes
2022/09/24,08:50,0.145,0.137,0.212,0.205,0.209,0.117,0.077,southwest,7.5,Yes
2022/09/24,09:00,0.145,0.136,0.210,0.205,0.211,0.116,0.077,southwest,6.7,Yes
2022/09/24,09:10,0.146,0.134,0.212,0.203,0.208,0.115,0.076,southwest,5.2,Yes
2022/09/24,09:20,0.145,0.136,0.211,0.204,0.208,0.117,0.076,southwest,4.7,Yes
2022/09/24,09:30,0.144,0.137,0.210,0.206,0.209,0.116,0.076,west-southwest,4.8,Yes
2022/09/24,09:40,0.144,0.134,0.213,0.204,0.210,0.115,0.076,southwest,5.2,Yes
2022/09/24,09:50,0.145,0.134,0.213,0.202,0.208,0.116,0.077,southwest,6.2,Yes
2022/09/24,10:00,0.145,0.136,0.210,0.205,0.209,0.117,0.075,south-southwest,5.1,Yes
2022/09/24,10:10,0.146,0.138,0.212,0.204,0.212,0.118,0.077,south-southwest,3.6,Yes
2022/09/24,10:20,0.148,0.136,0.214,0.204,0.210,0.118,0.078,west-southwest,2.8,Yes
2022/09/24,10:30,0.148,0.138,0.212,0.207,0.209,0.119,0.077,south-southwest,1.4,Yes
2022/09/24,10:40,0.145,0.136,0.213,0.206,0.213,0.117,0.077,south-southwest,1.6,Yes
2022/09/24,10:50,0.147,0.137,0.212,0.203,0.211,0.117,0.078,south-southwest,2.4,Yes
2022/09/24,11:00,0.146,0.138,0.212,0.207,0.210,0.119,0.079,south,2.0,Yes
2022/09/24,11:10,0.146,0.137,0.213,0.207,0.212,0.118,0.079,south,1.9,Yes
2022/09/24,11:20,0.148,0.138,0.214,0.205,0.212,0.118,0.079,southwest,1.8,Yes
2022/09/24,11:30,0.147,0.138,0.211,0.207,0.210,0.118,0.079,west,1.3,Yes
2022/09/24,11:40,0.146,0.139,0.213,0.206,0.211,0.118,0.078,northeast,2.6,Yes
2022/09/24,11:50,0.147,0.137,0.213,0.204,0.212,0.117,0.079,southeast,0.7,Yes
2022/09/24,12:00,0.147,0.138,0.211,0.205,0.211,0.118,0.078,northwest,1.0,Yes
2022/09/24,12:10,0.146,0.138,0.212,0.204,0.210,0.118,0.078,north-northeast,0.7,Yes
2022/09/24,12:20,0.146,0.136,0.212,0.203,0.212,0.117,0.079,east-northeast,1.2,Yes
2022/09/24,12:30,0.147,0.137,0.209,0.204,0.209,0.118,0.078,northeast,2.7,Yes
2022/09/24,12:40,0.145,0.138,0.210,0.203,0.209,0.118,0.079,northeast,0.7,Yes
2022/09/24,12:50,0.144,0.138,0.208,0.198,0.210,0.117,0.079,north-northeast,10.7,Yes
2022/09/24,13:00,0.136,0.135,0.195,0.191,0.204,0.113,0.078,north-northeast,4.6,Yes
2022/09/24,13:10,0.125,0.129,0.194,0.192,0.202,0.115,0.078,southwest,2.3,Yes
2022/09/24,13:20,0.132,0.135,0.201,0.197,0.208,0.116,0.081,northwest,2.9,Yes
2022/09/24,13:30,0.139,0.137,0.202,0.202,0.208,0.116,0.079,north,4.8,Yes
2022/09/24,13:40,0.140,0.136,0.206,0.201,0.207,0.116,0.080,west-northwest,1.1,Yes
2022/09/24,13:50,0.144,0.139,0.206,0.201,0.211,0.117,0.081,northwest,2.3,Yes
2022/09/24,14:00,0.145,0.139,0.207,0.205,0.211,0.117,0.081,northwest,2.4,Yes
2022/09/24,14:10,0.144,0.138,0.208,0.205,0.210,0.118,0.082,north,2.7,Yes
2022/09/24,14:20,0.146,0.140,0.209,0.204,0.213,0.118,0.082,north,1.9,Yes
2022/09/24,14:30,0.145,0.138,0.209,0.206,0.212,0.116,0.080,north,2.9,Yes
2022/09/24,14:40,0.145,0.138,0.210,0.205,0.210,0.117,0.080,north,1.6,Yes
2022/09/24,14:50,0.146,0.138,0.208,0.205,0.212,0.117,0.080,north-northeast,0.9,Yes
2022/09/24,15:00,0.147,0.139,0.211,0.208,0.214,0.117,0.081,north-northwest,2.7,Yes
2022/09/24,15:10,0.149,0.140,0.214,0.209,0.213,0.121,0.085,north-northwest,3.8,Yes
2022/09/24,15:20,0.151,0.143,0.213,0.208,0.218,0.123,0.086,northwest,2.6,Yes
2022/09/24,15:30,0.150,0.141,0.215,0.212,0.217,0.121,0.085,north-northwest,2.0,Yes
2022/09/24,15:40,0.150,0.141,0.215,0.211,0.213,0.121,0.085,north-northwest,3.9,Yes
2022/09/24,15:50,0.150,0.140,0.211,0.208,0.215,0.120,0.083,north-northwest,5.5,Yes
2022/09/24,16:00,0.148,0.139,0.213,0.212,0.216,0.119,0.082,north-northwest,5.6,Yes
2022/09/24,16:10,0.148,0.139,0.214,0.210,0.214,0.120,0.082,north,3.6,Yes
2022/09/24,16:20,0.149,0.140,0.213,0.208,0.216,0.121,0.084,north-northeast,4.8,Yes
2022/09/24,16:30,0.148,0.138,0.215,0.211,0.216,0.122,0.083,north-northeast,7.1,Yes
2022/09/24,16:40,0.149,0.140,0.216,0.212,0.215,0.123,0.086,north,6.9,Yes
2022/09/24,16:50,0.149,0.141,0.214,0.210,0.218,0.122,0.085,north-northeast,6.0,Yes
2022/09/24,17:00,0.148,0.140,0.216,0.212,0.216,0.121,0.084,north,6.0,Yes
2022/09/24,17:10,0.148,0.140,0.213,0.208,0.213,0.120,0.084,north,6.0,Yes
2022/09/24,17:20,0.148,0.138,0.214,0.209,0.216,0.120,0.081,north-northeast,6.4,Yes
2022/09/24,17:30,0.145,0.137,0.212,0.208,0.212,0.119,0.080,north-northeast,4.4,No
2022/09/24,17:40,0.146,0.136,0.212,0.205,0.212,0.118,0.080,north-northeast,6.0,No
2022/09/24,17:50,0.145,0.135,0.212,0.208,0.213,0.117,0.079,north-northeast,6.3,No
2022/09/24,18:00,0.145,0.135,0.209,0.204,0.209,0.115,0.078,north,4.7,No
2022/09/24,18:10,0.145,0.133,0.212,0.204,0.211,0.115,0.077,north,5.0,No
2022/09/24,18:20,0.144,0.133,0.209,0.205,0.209,0.115,0.076,north,5.8,No
2022/09/24,18:30,0.146,0.133,0.208,0.203,0.207,0.114,0.076,north,6.3,No
2022/09/24,18:40,0.144,0.132,0.209,0.204,0.210,0.114,0.075,north-northwest,5.0,No
2022/09/24,18:50,0.143,0.133,0.208,0.202,0.208,0.114,0.075,north-northwest,5.0,No
2022/09/24,19:00,0.145,0.132,0.209,0.203,0.208,0.115,0.074,north-northwest,5.5,No
2022/09/24,19:10,0.142,0.132,0.209,0.203,0.209,0.114,0.074,north-northwest,5.9,No
2022/09/24,19:20,0.144,0.132,0.208,0.201,0.208,0.113,0.075,north-northwest,7.1,No
2022/09/24,19:30,0.144,0.132,0.209,0.203,0.209,0.113,0.074,north-northwest,6.5,No
2022/09/24,19:40,0.143,0.132,0.207,0.202,0.208,0.113,0.074,north-northwest,6.7,No
2022/09/24,19:50,0.145,0.131,0.208,0.203,0.207,0.113,0.074,north,5.6,No
2022/09/24,20:00,0.143,0.132,0.208,0.204,0.209,0.115,0.073,north-northwest,5.8,No
2022/09/24,20:10,0.144,0.131,0.209,0.200,0.207,0.113,0.074,north-northwest,5.9,No
2022/09/24,20:20,0.145,0.132,0.208,0.203,0.208,0.114,0.075,north-northwest,5.7,No
2022/09/24,20:30,0.142,0.131,0.209,0.202,0.209,0.114,0.074,north-northwest,4.7,No
2022/09/24,20:40,0.144,0.131,0.210,0.202,0.207,0.113,0.074,north-northwest,4.7,No
2022/09/24,20:50,0.144,0.132,0.207,0.205,0.210,0.113,0.074,north-northwest,4.7,No
2022/09/24,21:00,0.143,0.131,0.210,0.203,0.208,0.114,0.075,north-northwest,4.8,Yes
2022/09/24,21:10,0.145,0.132,0.209,0.202,0.208,0.113,0.074,north-northwest,4.6,No
2022/09/24,21:20,0.144,0.132,0.208,0.204,0.209,0.113,0.074,north-northwest,4.5,No
2022/09/24,21:30,0.144,0.132,0.210,0.203,0.207,0.115,0.075,north-northwest,5.2,No
2022/09/24,21:40,0.143,0.132,0.209,0.204,0.208,0.113,0.074,north-northwest,5.4,No
2022/09/24,21:50,0.144,0.131,0.210,0.202,0.208,0.114,0.074,north-northwest,5.2,No
2022/09/24,22:00,0.145,0.132,0.209,0.203,0.206,0.115,0.075,north-northwest,5.1,No
2022/09/24,22:10,0.144,0.131,0.208,0.204,0.210,0.114,0.074,north-northwest,5.8,No
2022/09/24,22:20,0.145,0.132,0.209,0.203,0.207,0.114,0.075,north-northwest,5.6,No
2022/09/24,22:30,0.145,0.132,0.208,0.205,0.209,0.114,0.074,north-northwest,5.1,No
2022/09/24,22:40,0.145,0.131,0.210,0.203,0.209,0.114,0.075,north-northwest,6.0,No
2022/09/24,22:50,0.145,0.132,0.208,0.203,0.207,0.115,0.075,north-northwest,6.2,No
2022/09/24,23:00,0.144,0.131,0.210,0.204,0.210,0.114,0.074,north-northwest,6.0,No
2022/09/24,23:10,0.145,0.132,0.211,0.202,0.209,0.114,0.075,north-northwest,7.0,No
2022/09/24,23:20,0.146,0.132,0.209,0.204,0.208,0.115,0.075,north-northwest,5.9,No
2022/09/24,23:30,0.145,0.131,0.210,0.203,0.210,0.114,0.075,north-northwest,5.2,No
2022/09/24,23:40,0.147,0.132,0.209,0.204,0.208,0.115,0.075,north-northwest,4.8,No
2022/09/24,23:50,0.144,0.132,0.211,0.205,0.210,0.116,0.075,north-northwest,5.1,Yes
